Oakes, ND

9:32 AM CDT on September 16, 2019 (GMT -0500)
Oakes

Weather History for K2D5 - August, 2019

Change the Weather History Date:

Saturday, August 24, 2019

  Actual Average (WUND) Record (WUND)
Temperature  
Mean Temperature 70 °F -  
Max Temperature 80 °F - - (-1)
Min Temperature 59 °F - - (-1)
Cooling Degree Days 4    
Growing Degree Days 20 (Base 50)    
Moisture  
Dew Point 64 °F    
Average Humidity 83    
Maximum Humidity 100    
Minimum Humidity 61    
Precipitation  
Precipitation 0.00 in - - ()
Sea Level Pressure  
Sea Level Pressure 30.01 in    
Wind  
Wind Speed 12 mph (SSE)    
Max Wind Speed 23 mph    
Max Gust Speed 31 mph    
Visibility 10 miles    
Events      
Averages and records for this station are not official NWS values.
T = Trace of Precipitation, MM = Missing Value Source: NWS Daily Summary

Daily Weather History Graph

Daily Weather History Graph

Search for Another Location

Airport or City:

Astronomy

Aug. 24, 2019 Rise Set
Actual Time 6:42 AM CDT 8:25 PM CDT
Civil Twilight 6:10 AM CDT 8:57 PM CDT
Nautical Twilight 5:31 AM CDT 9:36 PM CDT
Astronomical Twilight 4:49 AM CDT 10:18 PM CDT
Moon 12:29 AM CDT (8/24) 3:52 PM CDT (8/24)
Length of Visible Light 14h 46m
Length of Day
13h 43m
Last Quarter, 39% of the Moon is Illuminated
Aug 24
Last Quarter
Aug 30
New
Sep 5
First Quarter
Sep 13
Full
Sep 21
Last Quarter

Hourly Weather History & Observations

Time (CDT) Temp. Heat Index Dew Point Humidity Pressure Visibility Wind Dir Wind Speed Gust Speed Precip Events Conditions
12:15 AM 60.8 °F - 60.8 °F 100% 30.09 in 10.0 mi ESE 6.9 mph - N/A   Partly Cloudy
12:35 AM 60.8 °F - 60.8 °F 100% 30.09 in 10.0 mi SE 5.8 mph - N/A   Scattered Clouds
12:55 AM 59.0 °F - 59.0 °F 100% 30.08 in 10.0 mi SE 6.9 mph - N/A   Scattered Clouds
1:15 AM 60.8 °F - 60.8 °F 100% 30.08 in 10.0 mi SE 8.1 mph - N/A   Scattered Clouds
1:35 AM 60.8 °F - 60.8 °F 100% 30.08 in 10.0 mi SE 8.1 mph - N/A   Mostly Cloudy
1:55 AM 60.8 °F - 60.8 °F 100% 30.08 in 9.0 mi SE 9.2 mph - N/A   Mostly Cloudy
2:15 AM 60.8 °F - 60.8 °F 100% 30.09 in 10.0 mi SSE 9.2 mph - N/A   Overcast
2:35 AM 60.8 °F - 60.8 °F 100% 30.08 in 9.0 mi SSE 9.2 mph - N/A   Overcast
2:55 AM 60.8 °F - 60.8 °F 100% 30.08 in 10.0 mi SSE 10.4 mph - N/A   Mostly Cloudy
3:15 AM 62.6 °F - 62.6 °F 100% 30.07 in 10.0 mi SSE 10.4 mph - N/A   Scattered Clouds
3:35 AM 62.6 °F - 62.6 °F 100% 30.07 in 10.0 mi SSE 10.4 mph - N/A   Scattered Clouds
3:55 AM 62.6 °F - 62.6 °F 100% 30.06 in 10.0 mi SSE 10.4 mph - N/A   Scattered Clouds
4:15 AM 62.6 °F - 62.6 °F 100% 30.06 in 10.0 mi SSE 10.4 mph - N/A   Partly Cloudy
4:35 AM 62.6 °F - 62.6 °F 100% 30.06 in 10.0 mi SSE 9.2 mph - N/A   Partly Cloudy
4:55 AM 60.8 °F - 60.8 °F 100% 30.06 in 9.0 mi SSE 8.1 mph - N/A   Clear
5:15 AM 60.8 °F - 60.8 °F 100% 30.06 in 9.0 mi SSE 9.2 mph - N/A   Partly Cloudy
5:35 AM 60.8 °F - 60.8 °F 100% 30.07 in 10.0 mi SSE 9.2 mph - N/A   Scattered Clouds
5:55 AM 60.8 °F - 60.8 °F 100% 30.07 in 9.0 mi SSE 8.1 mph - N/A   Partly Cloudy
6:15 AM 60.8 °F - 60.8 °F 100% 30.07 in 9.0 mi SSE 8.1 mph - N/A   Clear
6:35 AM 60.8 °F - 60.8 °F 100% 30.06 in 9.0 mi SSE 9.2 mph - N/A   Clear
6:55 AM 60.8 °F - 60.8 °F 100% 30.05 in 8.0 mi SSE 9.2 mph - N/A   Clear
7:15 AM 60.8 °F - 60.8 °F 100% 30.05 in 9.0 mi SSE 9.2 mph - N/A   Clear
7:35 AM 62.6 °F - 62.6 °F 100% 30.05 in 10.0 mi South 10.4 mph - N/A   Clear
7:55 AM 62.6 °F - 62.6 °F 100% 30.05 in 10.0 mi South 10.4 mph - N/A   Clear
8:15 AM 64.4 °F - 64.4 °F 100% 30.05 in 10.0 mi SSE 13.8 mph - N/A   Clear
8:55 AM 68.0 °F - 64.4 °F 88% 30.04 in 10.0 mi South 19.6 mph - N/A   Clear
9:15 AM 68.0 °F - 64.4 °F 88% 30.04 in 10.0 mi South 16.1 mph 23.0 mph N/A   Clear
9:35 AM 69.8 °F - 64.4 °F 83% 30.03 in 10.0 mi South 18.4 mph - N/A   Clear
9:55 AM 71.6 °F - 64.4 °F 78% 30.03 in 10.0 mi South 18.4 mph - N/A   Clear
10:15 AM 73.4 °F - 64.4 °F 73% 30.03 in 10.0 mi South 19.6 mph - N/A   Clear
10:35 AM 73.4 °F - 64.4 °F 73% 30.03 in 10.0 mi South 21.9 mph 27.6 mph N/A   Clear
10:55 AM 75.2 °F - 66.2 °F 73% 30.02 in 10.0 mi SSE 19.6 mph - N/A   Clear
11:15 AM 75.2 °F - 66.2 °F 73% 30.02 in 10.0 mi SSE 18.4 mph 26.5 mph N/A   Clear
11:35 AM 77.0 °F - 66.2 °F 69% 30.01 in 10.0 mi SSE 19.6 mph - N/A   Clear
11:55 AM 77.0 °F - 66.2 °F 69% 30.01 in 10.0 mi SSE 16.1 mph 27.6 mph N/A   Partly Cloudy
12:15 PM 78.8 °F - 68.0 °F 69% 30.00 in 10.0 mi SSE 20.7 mph 27.6 mph N/A   Scattered Clouds
12:35 PM 78.8 °F - 66.2 °F 65% 30.00 in 10.0 mi SSE 21.9 mph 29.9 mph N/A   Scattered Clouds
12:55 PM 78.8 °F - 68.0 °F 69% 29.99 in 9.0 mi SSE 20.7 mph 28.8 mph N/A   Mostly Cloudy
1:15 PM 80.6 °F 83.2 °F 68.0 °F 65% 29.99 in 10.0 mi South 18.4 mph 26.5 mph N/A   Mostly Cloudy
1:35 PM 78.8 °F - 66.2 °F 65% 29.98 in 10.0 mi SSE 23.0 mph 31.1 mph N/A   Mostly Cloudy
1:55 PM 78.8 °F - 66.2 °F 65% 29.98 in 9.0 mi SSE 20.7 mph 28.8 mph N/A   Mostly Cloudy
2:15 PM 80.6 °F 82.7 °F 66.2 °F 61% 29.98 in 10.0 mi South 20.7 mph 28.8 mph N/A   Mostly Cloudy
2:55 PM 80.6 °F 82.7 °F 66.2 °F 61% 29.98 in 10.0 mi South 21.9 mph - N/A   Partly Cloudy
3:15 PM 80.6 °F 82.7 °F 66.2 °F 61% 29.98 in 10.0 mi SSE 21.9 mph 27.6 mph N/A   Partly Cloudy
3:35 PM 80.6 °F 82.7 °F 66.2 °F 61% 29.98 in 10.0 mi SSE 21.9 mph 29.9 mph N/A   Mostly Cloudy
3:55 PM 78.8 °F - 66.2 °F 65% 29.98 in 9.0 mi SSE 17.3 mph 24.2 mph N/A   Overcast
4:15 PM 77.0 °F - 68.0 °F 74% 29.97 in 9.0 mi SE 16.1 mph 25.3 mph N/A   Mostly Cloudy
4:35 PM 78.8 °F - 64.4 °F 61% 29.97 in 10.0 mi South 23.0 mph - N/A   Scattered Clouds
4:55 PM 77.0 °F - 64.4 °F 65% 29.97 in 10.0 mi South 18.4 mph 25.3 mph N/A   Mostly Cloudy
5:15 PM 77.0 °F - 64.4 °F 65% 29.97 in 10.0 mi SSE 18.4 mph 24.2 mph N/A   Mostly Cloudy
5:35 PM 77.0 °F - 64.4 °F 65% 29.97 in 10.0 mi SSE 16.1 mph 23.0 mph N/A   Mostly Cloudy
5:55 PM 77.0 °F - 66.2 °F 69% 29.97 in 10.0 mi SSE 16.1 mph 27.6 mph N/A   Partly Cloudy
6:15 PM 77.0 °F - 66.2 °F 69% 29.96 in 10.0 mi SSE 20.7 mph 26.5 mph N/A   Mostly Cloudy
6:35 PM 75.2 °F - 66.2 °F 73% 29.96 in 10.0 mi SSE 20.7 mph 26.5 mph N/A   Mostly Cloudy
6:55 PM 75.2 °F - 64.4 °F 69% 29.96 in 10.0 mi SSE 13.8 mph 20.7 mph N/A   Scattered Clouds
7:15 PM 73.4 °F - 64.4 °F 73% 29.96 in 10.0 mi SSE 13.8 mph 19.6 mph N/A   Partly Cloudy
7:35 PM 73.4 °F - 64.4 °F 73% 29.96 in 9.0 mi SSE 16.1 mph - N/A   Scattered Clouds
8:15 PM 69.8 °F - 64.4 °F 83% 29.95 in 10.0 mi SSE 16.1 mph - N/A   Clear
8:35 PM 69.8 °F - 64.4 °F 83% 29.96 in 10.0 mi SSE 13.8 mph 19.6 mph N/A   Scattered Clouds
8:55 PM 69.8 °F - 64.4 °F 83% 29.96 in 10.0 mi SSE 12.7 mph - N/A   Mostly Cloudy
9:15 PM 68.0 °F - 62.6 °F 83% 29.96 in 10.0 mi SSE 11.5 mph 18.4 mph N/A   Mostly Cloudy
9:55 PM 66.2 °F - 62.6 °F 88% 29.95 in 10.0 mi SSE 11.5 mph 21.9 mph N/A   Partly Cloudy
10:15 PM 66.2 °F - 62.6 °F 88% 29.95 in 10.0 mi SSE 13.8 mph - N/A   Clear
10:35 PM 66.2 °F - 62.6 °F 88% 29.95 in 10.0 mi SSE 13.8 mph 19.6 mph N/A   Clear
10:55 PM 66.2 °F - 60.8 °F 83% 29.95 in 10.0 mi SSE 12.7 mph - N/A   Partly Cloudy
11:15 PM 64.4 °F - 60.8 °F 88% 29.94 in 10.0 mi SE 16.1 mph - N/A   Clear
11:35 PM 64.4 °F - 60.8 °F 88% 29.94 in 10.0 mi SSE 13.8 mph - N/A   Clear
11:55 PM 64.4 °F - 60.8 °F 88% 29.94 in 10.0 mi SSE 17.3 mph - N/A   Scattered Clouds